Location: Songkhla
(7.2000°N, 100.6000°E)
Time: 10:07:17
(UTC+07:00)

Daily predictions for brighter satellites

Satellite Brightness Start Highest point End
(mag) Time Altitude Azimuth Time Altitude Azimuth Time Altitude Azimuth
Cosmos 2074 Rocket 4.1 18:42:08 10° SSE 18:48:11 54° E 18:54:15 10° NNE
Ariane H10-3 3.3 18:47:24 10° SW 18:50:30 29° SSE 18:58:07 10° ESE
ASTRO E2 3.6 18:47:33 10° NW 18:51:13 33° NNE 18:54:53 10° E
CENTAUR R/B 4.3 18:46:35 10° NW 18:54:32 48° WSW 19:02:18 10° S
Cosmos 2184 Rocket 4.1 18:48:52 10° S 18:55:08 61° E 19:01:19 10° NNE
GPS 2-17 Rocket1 3.5 18:50:50 10° SW 18:55:32 53° SSE 19:00:02 10° E
Cosmos 2297 Rocket 2.7 18:51:46 10° S 18:57:00 39° ESE 19:02:13 10° NE
Cosmos 1455 Rocket 4.4 18:53:53 10° SE 18:57:02 19° E 19:00:10 10° NE
Helios 1B rocket 3.7 18:56:21 10° NE 18:59:30 21° E 19:02:39 10° SSE
Cosmos 2322 4.3 18:54:58 10° N 19:00:00 33° ENE 19:05:01 10° SE
Cosmos 2181 Rocket 4.1 18:53:53 10° N 19:00:09 62° E 19:06:29 10° SSE
Cosmos 1340 2.6 18:59:02 10° N 19:02:48 88° E 19:06:35 10° S
Cosmos 1975 4.3 19:00:28 10° SE 19:03:01 16° E 19:05:34 10° NE
Cosmos 1486 Rocket 4.2 19:02:19 10° S 19:07:26 49° ESE 19:12:33 10° NNE
Meteor 1-19 Rocket 4.2 19:08:03 10° N 19:13:49 73° E 19:19:39 10° S
Resurs 01 Rocket 2.9 19:11:03 10° ESE 19:14:13 20° ENE 19:17:22 10° NNE
Cosmos 2227 Rocket 2.3 19:11:51 10° SSW 19:17:30 84° WNW 19:23:09 10° NNE
COSMOS 2428 3.7 19:15:04 10° NNE 19:19:25 23° ENE 19:22:18 16° ESE
Intercosmos 24 4.4 19:15:59 10° SSW 19:19:30 59° W 19:23:42 10° N
Cosmos 482 Debris 4.2 19:19:40 10° SSW 19:23:56 46° SE 19:24:59 31° ENE
Cosmos 1500 3.9 19:21:03 10° SSE 19:24:27 31° E 19:26:17 20° NE
Cosmos 2154 Rocket 4.1 19:18:31 10° SSE 19:24:40 53° E 19:30:48 10° NNE
Meteor 2-4 Rocket 3.5 19:20:23 10° N 19:25:39 61° E 19:30:56 10° SSE
Cosmos 2360 Rocket 2.1 19:20:14 10° N 19:25:53 76° ENE 19:31:32 10° SSE
Atlas Centaur 2 4.4 19:21:30 10° W 19:28:03 27° NNW 19:33:47 10° NNE
Meteor 1-23 Rocket 4.2 19:27:21 10° N 19:32:56 57° E 19:38:27 10° SSE
SPELTRA 3.5 19:30:27 10° WSW 19:33:41 32° S 19:35:18 23° SE
HJ-1C 3.4 19:31:38 10° SSE 19:34:58 55° E 19:38:15 10° N
Meteor 1-29 3.0 19:34:24 35° NE 19:35:27 49° E 19:38:46 10° S
FREGAT/IRIS 4.3 19:41:25 10° S 19:44:17 36° W 19:47:08 10° NNW
SJ-6B 3.6 19:41:14 10° S 19:45:14 54° W 19:49:09 10° NNW
Cosmos 2285 Rocket 4.4 19:41:11 10° N 19:47:00 37° ENE 19:48:27 33° ESE
ARIANE 44P R/B 3.5 19:42:16 10° W 19:47:58 30° SSW 19:49:00 24° SSE
Tiangong 2 2.5 19:46:05 10° NNW 19:47:47 28° NNW 19:47:47 28° NNW
FENGYUN 3A 3.6 19:46:55 10° SSE 19:52:20 87° ENE 19:57:45 10° NNW
Cosmos 1025 Rocket 3.1 19:48:29 10° N 19:52:51 77° W 19:57:15 10° S
GOES 2 Rocket 3.0 19:49:06 10° WNW 19:54:07 88° SSW 19:54:56 59° ESE
Cosmos 962 Rocket 4.3 19:47:54 10° S 19:54:08 73° E 20:00:17 10° N
ARIANE 5 DEB (SYLDA) 4.2 19:54:28 10° W 19:57:53 89° NNE 19:58:02 81° E
Spot 2 Rocket 3.3 19:57:07 10° SSE 20:02:09 81° ENE 20:07:12 10° N
ARIANE 5 DEB (SYLDA) 4.4 20:00:53 10° SW 20:03:54 23° S 20:04:31 22° SSE
ARIANE 5 DEB (SYLDA) 3.7 19:59:49 10° W 20:04:03 43° S 20:04:15 43° S
Cosmos 489 Rocket 4.3 20:02:01 10° S 20:08:16 73° E 20:10:19 44° NNE
ALOS 3.4 20:06:47 10° S 20:11:12 44° WSW 20:15:38 10° NNW
Lacrosse 5 rocket 3.1 20:18:47 10° SSW 20:20:57 27° SSW 20:20:57 27° SSW
ARIANE 5 R/B 3.9 20:22:04 10° W 20:22:17 13° WSW 20:22:17 13° WSW
SL-8 Rocket 4.2 20:31:03 10° S 20:36:09 61° SSW 20:36:09 61° SSW
Centaur AC-119 4.2 20:34:42 10° WNW 20:39:13 67° SSW 20:41:49 50° SE
Resurs 01 Rocket 4.2 20:47:25 10° SW 20:50:25 18° W 20:53:26 10° WNW
